Regional Weather Roundup
Issued by NWS Goodland, KS

Home | Current Version | Previous Version | Text Only | Print | Product List | Glossary Off
Versions: 1 2 3 4 5 6 7 8 9 10 11 12 13 14 15 16 17 18 19 20 21 22 23 24 25 26 27 28 29 30 31 32 33 34 35 36 37 38 39 40 41 42 43 44 45 46 47 48 49 50

000
ASUS43 KGLD 200108
RWRGLD

GOODLAND FORECAST AREA HOURLY WEATHER ROUNDUP
NATIONAL WEATHER SERVICE GOODLAND KS
600 PM MST SUN NOV 19 2017

...OFFICIAL OBSERVATIONS...

CITY           SKY/WX    TMP DP  RH WIND       PRES   REMARKS
GOODLAND KS    CLOUDY    49  14  24 S13       29.96F
HILL CITY KS   CLOUDY    45  25  45 W7        29.98F
IMPERIAL NEB   CLOUDY    41  22  46 S5        29.92F
MCCOOK NEB     CLOUDY    46  24  42 W6        29.93F
AKRON CO       CLOUDY    43  10  26 SW10      29.94F
BURLINGTON CO  CLOUDY    39  13  34 S12       29.98F
LIMON CO       CLOUDY    31  14  49 CALM      30.00R
$$

...UNOFFICIAL OBSERVATIONS...

CITY           SKY/WX    TMP DP  RH WIND       PRES   REMARKS
COLBY KS       CLOUDY    36  27  69 S8        29.98S
LENORA KS        N/A     47  32  56 S10         N/A
NORTON KS      CLEAR     39  19  45 S7        29.95
SHARON SPRINGS   N/A     39  20  46 S10         N/A
TRIBUNE KS     CLOUDY    41  19  42 S9        30.00F
TRENTON NEB      N/A     42  32  68 CALM        N/A
KIT CARSON CO    N/A     42  14  32 CALM        N/A
YUMA CO        FAIR      37  16  41 SW8       29.94F
$$



USA.gov is the U.S. government's official web portal to all federal, state and local government web resources and services.